Weather History for Watford City, ND

Change the Weather History Date:

Monday, March 18, 2013

  Actual Average (KISN) Record (KISN)
Temperature  
Mean Temperature 8 °F 30 °F  
Max Temperature 15 °F 41 °F 67 °F (1910)
Min Temperature 1 °F 19 °F -13 °F (1923)
Degree Days  
Heating Degree Days 57 35  
Month to date heating degree days 700  
Since 1 July heating degree days 7468  
Cooling Degree Days 0 0  
Month to date cooling degree days 0  
Year to date cooling degree days 0  
Moisture  
Dew Point 2 °F    
Average Humidity 75    
Maximum Humidity 85    
Minimum Humidity 62    
Precipitation  
Precipitation 0.30 in 0.02 in 0.50 in (1913)
Month to date precipitation 0.39  
Year to date precipitation 1.37  
Sea Level Pressure  
Sea Level Pressure 29.89 in    
Wind  
Wind Speed 16 mph (WNW)    
Max Wind Speed 26 mph    
Max Gust Speed 34 mph    
Visibility 9 miles    
Events Rain , Snow    
T = Trace of Precipitation, MM = Missing Value Source: NWS Daily Summary

Daily Weather History Graph

Daily Weather History Graph

Search for Another Location

Airport:

Trip Planner

Search our weather history database for the weather conditions in past years. The results will help you decide how hot, cold, wet, or windy it might be!

Date:

Astronomy

Mar. 18, 2013 Rise Set
Actual Time 7:59 AM CDT 8:03 PM CDT
Civil Twilight 7:28 AM CDT 8:34 PM CDT
Nautical Twilight 6:52 AM CDT 9:10 PM CDT
Astronomical Twilight 6:15 AM CDT 9:47 PM CDT
Moon 11:36 AM CDT (3/18) 2:28 AM CDT (3/18)
Length of Visible Light 13h 05m
Length of Day
12h 03m
Waxing Crescent, 41% of the Moon is Illuminated
Mar 18
Waxing Crescent
Mar 19
First Quarter
Mar 27
Full
Apr 2
Last Quarter
Apr 10
New

Hourly Weather History & Observations

Time (CDT) Temp. Windchill Dew Point Humidity Pressure Visibility Wind Dir Wind Speed Gust Speed Precip Events Conditions
12:15 AM 8.6 °F -12.3 °F 3.2 °F 79% 29.73 in 2.5 mi NW 24.2 mph 34.5 mph 0.02 in Snow Light Snow
12:35 AM 6.8 °F -14.3 °F 1.4 °F 79% 29.74 in 2.0 mi NW 23.0 mph 33.4 mph 0.09 in Snow Light Snow
12:55 AM 6.8 °F -14.3 °F 1.4 °F 79% 29.75 in 3.0 mi WNW 23.0 mph 31.1 mph 0.13 in Snow Light Snow
1:15 AM 6.8 °F -15.5 °F 1.4 °F 79% 29.76 in 2.5 mi NW 26.5 mph 34.5 mph 0.05 in Snow Light Snow
1:35 AM 5.0 °F -16.2 °F -0.4 °F 78% 29.77 in 3.0 mi WNW 21.9 mph 28.8 mph 0.13 in Snow Light Snow
1:55 AM 5.0 °F -16.2 °F -0.4 °F 78% 29.77 in 4.0 mi NW 21.9 mph 33.4 mph 0.14 in Snow Light Snow
2:15 AM 5.0 °F -16.7 °F -0.4 °F 78% 29.78 in 7.0 mi NW 23.0 mph 29.9 mph N/A Snow Light Snow
2:35 AM 5.0 °F -17.1 °F -0.4 °F 78% 29.79 in 8.0 mi NW 24.2 mph 29.9 mph 0.01 in Snow Light Snow
2:55 AM 5.0 °F -15.7 °F -0.4 °F 78% 29.81 in 5.0 mi WNW 20.7 mph 32.2 mph 0.03 in Snow Light Snow
3:15 AM 5.0 °F -15.7 °F -0.4 °F 78% 29.81 in 5.0 mi NW 20.7 mph 29.9 mph N/A Snow Light Snow
3:35 AM 5.0 °F -14.7 °F -0.4 °F 78% 29.82 in 7.0 mi WNW 18.4 mph 25.3 mph N/A Rain Light Freezing Rain
3:55 AM 3.2 °F -17.6 °F -0.4 °F 85% 29.83 in 5.0 mi WNW 19.6 mph 27.6 mph N/A Snow Light Snow
4:15 AM 3.2 °F -17.1 °F -0.4 °F 85% 29.83 in 7.0 mi NW 18.4 mph 27.6 mph N/A Rain Light Freezing Rain
4:35 AM 3.2 °F -17.6 °F -0.4 °F 85% 29.84 in 8.0 mi NW 19.6 mph 31.1 mph N/A Rain Light Freezing Rain
4:55 AM 3.2 °F -18.6 °F -2.2 °F 78% 29.83 in 8.0 mi NW 21.9 mph 32.2 mph N/A Rain Light Freezing Rain
5:15 AM 1.4 °F -21.9 °F -2.2 °F 85% 29.83 in 8.0 mi NW 24.2 mph 29.9 mph N/A Snow Light Snow
5:35 AM 1.4 °F -21.9 °F -2.2 °F 85% 29.84 in 7.0 mi NW 24.2 mph 32.2 mph N/A Rain Light Freezing Rain
5:55 AM 3.2 °F -17.6 °F -0.4 °F 85% 29.85 in 7.0 mi NW 19.6 mph 29.9 mph N/A Rain Light Freezing Rain
6:15 AM 3.2 °F -15.9 °F -0.4 °F 85% 29.87 in 7.0 mi WNW 16.1 mph 26.5 mph N/A Rain Light Freezing Rain
6:35 AM 3.2 °F -16.5 °F -0.4 °F 85% 29.87 in 10.0 mi NW 17.3 mph 25.3 mph N/A   Overcast
6:55 AM 3.2 °F -17.1 °F -0.4 °F 85% 29.88 in 9.0 mi NW 18.4 mph 24.2 mph N/A   Overcast
7:15 AM 3.2 °F -14.6 °F -2.2 °F 78% 29.89 in 10.0 mi NW 13.8 mph 20.7 mph N/A   Overcast
7:35 AM 1.4 °F -16.1 °F -2.2 °F 85% 29.89 in 10.0 mi WNW 12.7 mph 18.4 mph N/A   Overcast
7:55 AM 1.4 °F -17.6 °F -2.2 °F 85% 29.91 in 10.0 mi WNW 15.0 mph 19.6 mph N/A   Overcast
8:15 AM 1.4 °F -15.3 °F -2.2 °F 85% 29.92 in 10.0 mi West 11.5 mph - N/A   Overcast
8:35 AM 1.4 °F -15.3 °F -2.2 °F 85% 29.92 in 10.0 mi WNW 11.5 mph 17.3 mph N/A   Mostly Cloudy
8:55 AM 1.4 °F -13.5 °F -2.2 °F 85% 29.93 in 10.0 mi West 9.2 mph - N/A   Partly Cloudy
9:15 AM 1.4 °F -16.1 °F -2.2 °F 85% 29.94 in 10.0 mi WNW 12.7 mph 17.3 mph N/A   Clear
9:35 AM 3.2 °F -13.1 °F -2.2 °F 78% 29.94 in 10.0 mi West 11.5 mph - N/A   Clear
9:55 AM 3.2 °F -13.9 °F -2.2 °F 78% 29.94 in 10.0 mi WNW 12.7 mph - N/A   Clear
10:15 AM 5.0 °F -10.8 °F -0.4 °F 78% 29.94 in 10.0 mi WNW 11.5 mph - N/A   Clear
10:35 AM 5.0 °F -10.0 °F -0.4 °F 78% 29.94 in 10.0 mi WNW 10.4 mph - N/A   Partly Cloudy
10:55 AM 5.0 °F -12.3 °F -0.4 °F 78% 29.94 in 10.0 mi WNW 13.8 mph - N/A   Scattered Clouds
11:15 AM 5.0 °F -13.6 °F -0.4 °F 78% 29.95 in 10.0 mi WNW 16.1 mph 20.7 mph N/A   Scattered Clouds
11:35 AM 6.8 °F -12.4 °F -0.4 °F 72% 29.95 in 10.0 mi WNW 18.4 mph 21.9 mph N/A   Clear
11:55 AM 6.8 °F -10.0 °F -0.4 °F 72% 29.95 in 10.0 mi West 13.8 mph - N/A   Clear
12:15 PM 8.6 °F -7.0 °F 1.4 °F 73% 29.94 in 10.0 mi WNW 12.7 mph 20.7 mph N/A   Clear
12:35 PM 8.6 °F -7.7 °F 1.4 °F 73% 29.95 in 10.0 mi NW 13.8 mph 18.4 mph N/A   Clear
12:55 PM 8.6 °F -5.5 °F 1.4 °F 73% 29.95 in 10.0 mi West 10.4 mph - N/A   Clear
1:15 PM 10.4 °F -3.3 °F 1.4 °F 67% 29.95 in 10.0 mi West 10.4 mph - N/A   Clear
1:35 PM 10.4 °F -5.4 °F 1.4 °F 67% 29.95 in 10.0 mi WNW 13.8 mph - N/A   Clear
1:55 PM 10.4 °F -4.8 °F 1.4 °F 67% 29.95 in 10.0 mi West 12.7 mph 17.3 mph N/A   Partly Cloudy
2:15 PM 10.4 °F -4.8 °F 1.4 °F 67% 29.94 in 10.0 mi WNW 12.7 mph 18.4 mph N/A   Partly Cloudy
2:35 PM 12.2 °F -2.5 °F 5.0 °F 73% 29.94 in 10.0 mi West 12.7 mph 19.6 mph N/A   Scattered Clouds
2:55 PM 14.0 °F -1.4 °F 5.0 °F 67% 29.94 in 10.0 mi WNW 15.0 mph - N/A   Partly Cloudy
3:15 PM 14.0 °F -0.2 °F 5.0 °F 67% 29.93 in 10.0 mi WNW 12.7 mph 17.3 mph N/A   Clear
3:35 PM 14.0 °F 3.9 °F 5.0 °F 67% 29.93 in 10.0 mi West 6.9 mph - N/A   Clear
3:55 PM 14.0 °F 3.9 °F 5.0 °F 67% 29.92 in 10.0 mi WNW 6.9 mph - N/A   Clear
4:15 PM 14.0 °F 2.9 °F 5.0 °F 67% 29.92 in 10.0 mi WNW 8.1 mph - N/A   Clear
4:35 PM 14.0 °F 6.5 °F 5.0 °F 67% 29.91 in 10.0 mi West 4.6 mph - N/A   Clear
4:55 PM 14.0 °F 2.9 °F 5.0 °F 67% 29.90 in 10.0 mi NW 8.1 mph - N/A   Clear
5:15 PM 15.8 °F 8.6 °F 5.0 °F 62% 29.90 in 10.0 mi WNW 4.6 mph - N/A   Clear
5:35 PM 15.8 °F - 5.0 °F 62% 29.90 in 10.0 mi Calm Calm - N/A   Clear
5:55 PM 15.8 °F 10.2 °F 5.0 °F 62% 29.90 in 10.0 mi WSW 3.5 mph - N/A   Clear
6:15 PM 15.8 °F 5.1 °F 5.0 °F 62% 29.91 in 10.0 mi SW 8.1 mph - N/A   Clear
6:35 PM 15.8 °F 8.6 °F 5.0 °F 62% 29.90 in 10.0 mi WSW 4.6 mph - N/A   Clear
6:55 PM 15.8 °F 7.2 °F 5.0 °F 62% 29.90 in 10.0 mi SW 5.8 mph - N/A   Clear
7:15 PM 15.8 °F - 5.0 °F 62% 29.90 in 10.0 mi Calm Calm - N/A   Clear
7:35 PM 14.0 °F 8.2 °F 5.0 °F 67% 29.90 in 10.0 mi West 3.5 mph - N/A   Clear
7:55 PM 14.0 °F - 5.0 °F 67% 29.90 in 10.0 mi Calm Calm - N/A   Clear
8:15 PM 10.4 °F - 5.0 °F 79% 29.91 in 10.0 mi Calm Calm - N/A   Clear
8:35 PM 10.4 °F - 5.0 °F 79% 29.91 in 10.0 mi Calm Calm - N/A   Clear
8:55 PM 8.6 °F - 3.2 °F 79% 29.91 in 10.0 mi Calm Calm - N/A   Clear
9:15 PM 8.6 °F 2.0 °F 3.2 °F 79% 29.90 in 10.0 mi East 3.5 mph - N/A   Clear
9:35 PM 8.6 °F -4.7 °F 3.2 °F 79% 29.90 in 10.0 mi ESE 9.2 mph - N/A   Clear
9:55 PM 8.6 °F -4.7 °F 3.2 °F 79% 29.90 in 10.0 mi ESE 9.2 mph - N/A   Clear
10:15 PM 10.4 °F -1.5 °F 5.0 °F 79% 29.90 in 10.0 mi SE 8.1 mph - N/A   Scattered Clouds
10:55 PM 12.2 °F 2.9 °F 5.0 °F 73% 29.90 in 10.0 mi SE 5.8 mph - N/A   Mostly Cloudy
11:15 PM 12.2 °F -0.2 °F 6.8 °F 79% 29.90 in 10.0 mi ESE 9.2 mph - N/A   Overcast
11:35 PM 12.2 °F - 6.8 °F 79% 29.90 in 10.0 mi Calm Calm - N/A   Overcast
11:55 PM 12.2 °F 6.1 °F 5.0 °F 73% 29.90 in 10.0 mi East 3.5 mph - N/A   Mostly Cloudy